Estherville, IA

1:02 AM CDT on July 26, 2017 (GMT -0500)
Estherville Municipal

Weather History for KEST - July, 2012

Change the Weather History Date:

Saturday, July 28, 2012

  Actual Average Record
Temperature  
Mean Temperature 66 °F 71 °F  
Max Temperature 74 °F 82 °F 104 °F (1955)
Min Temperature 58 °F 61 °F 45 °F (2013)
Degree Days  
Heating Degree Days 0 0  
Month to date heating degree days 0 0  
Since 1 June heating degree days 18 41  
Since 1 July heating degree days 0 0  
Cooling Degree Days 1 7  
Month to date cooling degree days 338 196  
Year to date cooling degree days 634 369  
Since 1 June cooling degree days 545 333  
Growing Degree Days 14 (Base 50)    
Moisture  
Dew Point 62 °F    
Average Humidity 90    
Maximum Humidity 100    
Minimum Humidity 79    
Precipitation  
Precipitation 0.00 in 0.11 in 0.94 in (1991)
Month to date precipitation T 3.60  
Year to date precipitation 15.47  
Sea Level Pressure  
Sea Level Pressure 30.09 in    
Wind  
Wind Speed 6 mph (SSE)    
Max Wind Speed 21 mph    
Max Gust Speed 24 mph    
Visibility 8 miles    
Events Rain , Thunderstorm    
T = Trace of Precipitation, MM = Missing Value Source: NWS Daily Summary

Daily Weather History Graph

Daily Weather History Graph

Search for Another Location

Airport or City:

Trip Planner

Search our weather history database for the weather conditions in past years. The results will help you decide how hot, cold, wet, or windy it might be!

Date:

Astronomy

Jul. 28, 2012 Rise Set
Actual Time 6:05 AM CDT 8:45 PM CDT
Civil Twilight 5:32 AM CDT 9:18 PM CDT
Nautical Twilight 4:50 AM CDT 9:59 PM CDT
Astronomical Twilight 4:03 AM CDT 10:46 PM CDT
Moon 4:52 PM CDT (7/28) 1:24 AM CDT (7/28)
Length of Visible Light 15h 45m
Length of Day
14h 40m
Waxing Gibbous, 76% of the Moon is Illuminated
Jul 28
Waxing Gibbous
Aug 1
Full
Aug 9
Last Quarter
Aug 17
New
Aug 24
First Quarter

Hourly Weather History & Observations

Time (CDT) Temp. Dew Point Humidity Pressure Visibility Wind Dir Wind Speed Gust Speed Precip Events Conditions
12:52 AM 60.1 °F 57.0 °F 90% 30.11 in 10.0 mi North 3.5 mph - N/A   Clear
1:52 AM 57.9 °F 55.9 °F 93% 30.11 in 10.0 mi Calm Calm - N/A   Clear
2:52 AM 59.0 °F 57.0 °F 93% 30.11 in 9.0 mi Calm Calm - N/A   Clear
3:52 AM 59.0 °F 57.0 °F 93% 30.11 in 10.0 mi Calm Calm - N/A   Clear
4:52 AM 61.0 °F 57.9 °F 90% 30.09 in 8.0 mi East 8.1 mph - N/A   Clear
5:52 AM 62.1 °F 60.1 °F 93% 30.17 in 7.0 mi WSW 5.8 mph - N/A   Partly Cloudy
6:52 AM 63.0 °F 61.0 °F 93% 30.13 in 5.0 mi ESE 5.8 mph - 0.00 in   Clear
7:52 AM 64.9 °F 62.1 °F 90% 30.12 in 8.0 mi SE 3.5 mph - N/A   Clear
8:52 AM 64.9 °F 61.0 °F 87% 30.11 in 9.0 mi SE 9.2 mph - N/A   Partly Cloudy
9:52 AM 68.0 °F 62.1 °F 81% 30.14 in 10.0 mi SSW 11.5 mph - N/A   Partly Cloudy
10:52 AM 64.9 °F 62.1 °F 90% 30.16 in 7.0 mi SSW 11.5 mph - 0.00 in Rain Light Rain
11:33 AM 64.4 °F 62.6 °F 94% 30.16 in 2.0 mi SSW 15.0 mph 21.9 mph N/A Rain Heavy Rain
11:52 AM 64.0 °F 62.1 °F 93% 30.15 in 2.5 mi South 5.8 mph 17.3 mph N/A Rain Rain
12:01 PM 64.4 °F 62.6 °F 94% 30.16 in 4.0 mi South 5.8 mph - N/A Rain Light Rain
12:52 PM 69.1 °F 64.9 °F 87% 30.10 in 10.0 mi South 13.8 mph - N/A   Clear
1:52 PM 72.0 °F 64.0 °F 76% 30.09 in 10.0 mi South 17.3 mph 24.2 mph N/A   Clear
2:52 PM 68.0 °F 62.1 °F 81% 30.09 in 10.0 mi South 10.4 mph - N/A   Clear
3:52 PM 66.9 °F 63.0 °F 87% 30.08 in 9.0 mi SSE 10.4 mph - N/A Rain Light Rain
4:43 PM 66.2 °F 64.4 °F 94% 30.08 in 9.0 mi South 10.4 mph - N/A Rain , Thunderstorm Light Rain
4:52 PM 66.0 °F 64.0 °F 93% 30.07 in 9.0 mi South 8.1 mph - N/A Rain , Thunderstorm Light Rain
5:07 PM 66.2 °F 64.4 °F 94% 30.04 in 5.0 mi East 6.9 mph - N/A Rain , Thunderstorm Light Thunderstorms and Rain
5:17 PM 66.2 °F 64.4 °F 94% 30.06 in 2.5 mi East 5.8 mph - N/A Rain , Thunderstorm Light Thunderstorms and Rain
5:24 PM 66.2 °F 64.4 °F 94% 30.04 in 7.0 mi ESE 8.1 mph - N/A Rain , Thunderstorm Light Rain
5:38 PM 66.2 °F 64.4 °F 94% 30.06 in 7.0 mi SE 5.8 mph - N/A Rain , Thunderstorm Light Rain
5:52 PM 66.0 °F 64.0 °F 93% 30.06 in 8.0 mi Variable 3.5 mph - N/A Rain , Thunderstorm Light Thunderstorms and Rain
5:59 PM 66.2 °F 64.4 °F 94% 30.06 in 10.0 mi ESE 3.5 mph - N/A Thunderstorm Thunderstorm
6:24 PM 66.2 °F 64.4 °F 94% 30.05 in 10.0 mi Calm Calm - N/A   Overcast
6:52 PM 66.9 °F 64.9 °F 93% 30.04 in 10.0 mi South 3.5 mph - N/A   Overcast
7:16 PM 66.2 °F 64.4 °F 94% 30.05 in 10.0 mi Calm Calm - N/A   Overcast
9:52 PM 66.0 °F 64.0 °F 93% 30.03 in 7.0 mi East 3.5 mph - N/A   Overcast
10:52 PM 64.9 °F 64.0 °F 97% 30.04 in 7.0 mi ESE 4.6 mph - N/A   Overcast
11:52 PM 64.9 °F 64.0 °F 97% 30.02 in 8.0 mi ESE 4.6 mph - N/A   Overcast